www.pogodaiklimat.ru

Погода и климат >> Архив погоды >> Бельгия >> Брюссель


АРХИВ ПОГОДЫ в Брюсселе

Время (UTC), дата Ветер
(напр.,м/с)
 
Видим.   Явления Облачность Т
(С)
Тd
(С)
f
(%)
Тe
(С)
Тes
(С)
Комфортность P
(гПа)
Po
(гПа)
Тmin
(С)
Tmax
(С)
R
(мм)
R24
(мм)
S
(см)
13 10.09 З 1
{6}
30 км 3/3 1500 м
[Cu hum Ci fib]
+19.8 +5.7 40 +22 +29 комфорт 1019.1 1012.6
14 10.09 СЗ 3
{6}
30 км 4/4 1500 м
[Cu hum Ci fib]
+20.4 +6.1 39 +22 +25 комфорт 1019.1 1012.7
15 10.09 СЗ 3
{6}
30 км 3/3 1500 м
[Cu hum Ci fib]
+20.2 +6.7 41 +21 +24 комфорт 1018.9 1012.5
16 10.09 С 3
{6}
30 км 4/1 1500 м
[Cu hum Ci fib]
+19.7 +7.1 44 +21 +22 комфорт 1019.2 1012.7
17 10.09 СЗ 3
{6}
30 км 4/4 1500 м
[Cu Sc Ci fib]
+18.6 +6.7 46 +19 +19 тепло 1019.7 1013.2
18 10.09 С 3
{6}
50 км 8/6 2000 м
[Sc Ac trans Ci sp]
+17.4 +8.8 57 +17 +17 по сезону 1020.0 1013.5 +21.0
19 10.09 СЗ 3
{5}
50 км 9/8 2000 м
[Sc Ac trans Ci sp]
+16.5 +9.8 65 +16 +16 тепло 1020.7 1014.1
20 10.09 СЗ 2
{4}
50 км 9/9 1500 м
[Sc]
+16.0 +9.1 64 +16 +16 тепло 1021.3 1014.7
21 10.09 СЗ 1
{5}
50 км 9/9 1500 м
[Sc]
+15.4 +9.5 68 +16 +16 тепло 1021.4 1014.8
22 10.09 ЮЗ 1
{2}
45 км 9/9 2000 м
[Sc]
+13.7 +10.4 80 +14 +14 тепло 1021.5 1014.9
23 10.09 ЮЗ 1
{1}
40 км 6/6 1500 м
[Sc]
+12.1 +9.7 85 +12 +12 по сезону 1021.4 1014.7
00 11.09 З 1
{5}
45 км 9/9 1500 м
[Sc]
+12.4 +10.0 85 +12 +12 по сезону 1021.7 1015.1
01 11.09 Ю 2
{2}
45 км 9/9 2000 м
[Sc]
+12.6 +10.1 85 +12 +12 тепло 1021.7 1015.0
02 11.09 ЮЗ 3
{3}
45 км 9/9 2000 м
[Sc]
+12.3 +9.8 85 +11 +11 по сезону 1021.6 1014.9
03 11.09 ЮЗ 2
{3}
45 км 9/9 1500 м
[Sc]
+12.8 +10.1 84 +12 +12 по сезону 1021.5 1014.9
04 11.09 ЮЗ 2
{4}
40 км 9/6 2000 м
[Sc Ac trans]
+13.9 +9.8 76 +13 +13 тепло 1021.4 1014.7
05 11.09 Ю 2
{4}
30 км 9/6 1500 м
[Sc Ac trans]
+13.1 +10.0 81 +12 +12 тепло 1021.6 1014.9
06 11.09 ЮЗ 3
{4}
16 км 9/6 1500 м
[Sc Ac As]
+13.4 +10.4 82 +12 +12 по сезону 1021.9 1015.2 +11.6
07 11.09 ЮЗ 4
{5}
13 км слаб. дождь 10/8 1200 м
[Sc Ac As]
+14.5 +11.1 80 +13 +13 по сезону 1022.2 1015.5
08 11.09 ЮЗ 3
{6}
7000 м слаб. дождь 10/9 300 м
[Sc]
+14.1 +12.5 90 +13 +13 по сезону 1022.5 1015.9
09 11.09 ЮЗ 4
{6}
7000 м слаб. дождь 10/9 300 м
[Sc]
+14.5 +13.1 91 +13 +13 по сезону 1023.0 1016.3
10 11.09 Ю 3
{6}
8000 м слаб. дождь 10/9 300 м
[Sc]
+14.8 +13.3 91 +14 +14 прохладно 1022.8 1016.2
11 11.09 ЮЗ 4
{8}
9000 м слаб. дождь 10/9 270 м
[Sc]
+15.5 +13.6 88 +14 +15 прохладно 1022.7 1016.1
12 11.09 ЮЗ 5
{10}
14 км в посл. час дождь 10/5 450 м
[Sc Ac As]
+16.3 +13.6 84 +15 +16 прохладно 1022.5 1016.0 2
13 11.09 ЮЗ 7
{11}
18 км слаб. дождь 10/9 540 м
[Sc]
+17.0 +12.6 75 +16 +16 по сезону 1022.7 1016.1
14 11.09 ЮЗ 6
{12}
20 км в посл. час дождь 10/9 240 м
[Sc]
+17.4 +11.7 69 +17 +17 по сезону 1022.5 1015.9
15 11.09 ЮЗ 6
{12}
20 км {дождь} 10/9 540 м
[Sc]
+18.3 +11.1 63 +18 +18 тепло 1022.4 1015.9
16 11.09 ЮЗ 5
{11}
25 км 10/8 900 м
[Sc]
+18.3 +10.5 60 +18 +18 тепло 1022.7 1016.2
17 11.09 ЮЗ 4
{8}
25 км в посл. час дождь 9/9 840 м
[Sc]
+18.4 +11.3 63 +19 +19 тепло 1022.5 1016.0
18 11.09 ЮЗ 6
{12}
15 км {дождь} 9/9 840 м
[Sc]
+17.8 +13.4 75 +17 +17 по сезону 1022.9 1016.4 +18.8 2
19 11.09 ЮЗ 5
{11}
10 км слаб. морось 9/9 360 м
[Frnb]
+16.5 +14.7 89 +16 +16 тепло 1023.5 1016.9
20 11.09 ЮЗ 5
{8}
8000 м слаб. дождь {морось} 9/9 210 м
[Frnb]
+16.7 +15.2 91 +16 +16 тепло 1023.9 1017.3
21 11.09 ЮЗ 5
{11}
10 км в посл. час дождь {морось} 9/9 270 м
[Frnb]
+16.7 +15.3 91 +16 +16 тепло 1024.2 1017.6
22 11.09 З 5
{9}
15 км 9/9 240 м
[St]
+16.9 +15.5 91 +16 +16 тепло 1024.5 1018.0
23 11.09 З 3
{8}
4000 м слаб. дождь {морось} 9/9 240 м
[Frnb]
+16.6 +15.6 94 +16 +16 тепло 1024.7 1018.1
00 12.09 ЮЗ 3
{11}
15 км в посл. час дождь {морось} 9/9 300 м
[St]
+16.7 +15.6 93 +16 +16 тепло 1025.0 1018.4 0.0
01 12.09 ЮЗ 3
{6}
6000 м в посл. час дождь {морось} 9/9 270 м
[Frnb]
+16.6 +15.6 94 +16 +16 тепло 1025.3 1018.7
02 12.09 ЮЗ 3
{5}
10 км в посл. час дождь 9/9 300 м
[Frnb]
+16.7 +15.6 93 +16 +16 тепло 1025.5 1018.9
03 12.09 ЮЗ 3
{6}
10 км {дождь} 9/9 300 м
[Frnb]
+16.7 +15.6 93 +16 +16 тепло 1025.7 1019.1
04 12.09 ЮЗ 4
{6}
7000 м слаб. морось 9/9 300 м
[Frnb]
+16.9 +15.7 93 +16 +16 тепло 1025.9 1019.3
05 12.09 З 4
{6}
5000 м слаб. морось {дождь} 9/9 270 м
[Frnb]
+16.9 +15.4 91 +16 +16 тепло 1026.3 1019.7
06 12.09 З 3
{6}
10 км в посл. час морось {дождь} 9/8 450 м
[Cu Sc]
+16.6 +14.6 88 +16 +16 тепло 1027.0 1020.4 +16.4 0.4
07 12.09 ЮЗ 3
{5}
10 км 9/8 360 м
[Cu Sc]
+16.9 +15.3 90 +17 +17 тепло 1027.3 1020.7
08 12.09 ЮЗ 3
{6}
15 км 8/8 360 м
[Cu Sc]
+18.0 +15.8 87 +18 +19 тепло 1028.0 1021.5
09 12.09 З 6
{8}
30 км 5/5 600 м
[Cu Sc]
+19.1 +14.1 73 +20 +21 тепло 1028.7 1022.1
10 12.09 З 6
{9}
30 км 5/5 800 м
[Cu Sc]
+19.5 +13.7 69 +21 +22 комфорт 1029.1 1022.5
11 12.09 З 5
{9}
30 км 4/4 1020 м
[Cu hum]
+20.6 +13.3 63 +23 +26 комфорт 1029.2 1022.7
12 12.09 З 5
{10}
30 км 3/3 1020 м
[Cu hum]
+21.8 +12.3 55 +24 +28 комфорт 1029.4 1022.9
13 12.09 З 6
{9}
30 км 1/1 1200 м
[Cu hum]
+22.6 +11.9 51 +25 +28 комфорт 1029.3 1022.8
14 12.09 З 6
{9}
30 км 1/1 1260 м
[Cu hum]
+23.2 +12.3 50 +26 +28 жарко 1029.3 1022.8
15 12.09 З 6
{10}
30 км 6/6 1320 м
[Sc diur, vesp]
+22.9 +12.5 52 +26 +26 жарко 1029.2 1022.7
16 12.09 З 5
{9}
30 км 8/8 1140 м
[Cu Sc]
+22.6 +13.2 55 +26 +26 жарко 1029.1 1022.6
17 12.09 З 6
{10}
30 км 6/6 1020 м
[Cu Sc]
+21.7 +14.3 63 +25 +25 комфорт 1029.5 1023.0
18 12.09 З 5
{10}
30 км 5/4 800 м
[Cu Sc Ci fib]
+20.6 +14.8 69 +23 +23 комфорт 1029.7 1023.1 +23.8
19 12.09 ЮЗ 3
{8}
30 км 1/1 800 м
[Sc Ci fib]
+19.1 +15.3 79 +21 +21 комфорт 1029.8 1023.3
20 12.09 ЮЗ 5
{7}
30 км 9/9 930 м
[Sc]
+19.6 +15.8 79 +21 +21 комфорт 1029.8 1023.3
21 12.09 З 7
{10}
30 км 9/9 660 м
[Sc]
+19.1 +15.6 80 +20 +20 тепло 1030.0 1023.5
22 12.09 З 6
{12}
30 км 9/9 660 м
[Sc]
+18.2 +14.7 80 +18 +18 тепло 1030.4 1023.8
23 12.09 З 6
{11}
30 км 9/9 570 м
[Sc]
+18.0 +15.2 84 +17 +17 тепло 1030.2 1023.6
00 13.09 З 5
{12}
30 км 9/9 500 м
[Sc]
+17.6 +14.0 79 +17 +17 тепло 1030.2 1023.6
01 13.09 З 4
{8}
30 км 10/10 450 м
[Sc]
+17.4 +15.1 86 +17 +17 тепло 1030.3 1023.7
02 13.09 З 4
{6}
30 км 10/10 480 м
[Sc]
+17.3 +14.3 83 +17 +17 тепло 1030.4 1023.8
03 13.09 З 4
{8}
30 км 9/9 570 м
[Sc]
+17.4 +11.0 66 +17 +17 тепло 1030.4 1023.8
04 13.09 ЮЗ 3
{6}
30 км 9/9 500 м
[Sc]
+17.1 +14.4 84 +17 +17 тепло 1030.5 1023.9
05 13.09 З 4
{6}
30 км 9/9 480 м
[Sc]
+17.1 +7.7 54 +17 +17 тепло 1031.0 1024.3
06 13.09 З 3
{9}
15 км 10/9 360 м
[Sc]
+17.0 +13.9 82 +17 +17 тепло 1031.5 1024.9 +17.0
07 13.09 З 3
{5}
12 км в посл. час морось 10/9 300 м
[St]
+16.9 1025.3
08 13.09 З 2
{5}
9000 м 10/9 300 м
[St]
+17.1 +14.7 86 +17 +18 тепло 1032.4 1025.8
09 13.09 З 3
{5}
12 км {морось} 9/9 330 м
[Sc]
+18.2 +14.9 81 +19 +19 тепло 1032.9 1026.3
10 13.09 З 2
{4}
15 км 9/9 420 м
[Sc]
+19.0 +15.3 79 +21 +22 комфорт 1033.2 1026.6
11 13.09 СЗ 2
{4}
15 км 9/9 540 м
[Cu Sc]
+19.9 +15.2 74 +23 +24 комфорт 1033.1 1026.6
12 13.09 С 4
{6}
15 км в посл. час ливневой дождь {морось} 9/8 600 м
[Cu Sc]
+20.1 +15.7 76 +23 +24 комфорт 1033.3 1026.7 0.0
13 13.09 С 4
{9}
15 км 6/5 720 м
[Cu Sc Ci fib]
+19.9 +14.6 72 +22 +25 комфорт 1033.3 1026.7
14 13.09 С 3
{6}
20 км 4/4 900 м
[Cu hum Ci fib]
+21.3 +13.5 61 +24 +27 комфорт 1033.3 1026.7
15 13.09 С 3
{9}
20 км 4/3 1110 м
[Cu hum Ci fib]
+20.8 +12.6 59 +23 +26 комфорт 1033.3 1026.7
16 13.09 С 4
{8}
20 км 4/4 1140 м
[Cu Sc Ci fib]
+20.8 +12.5 59 +23 +24 комфорт 1033.2 1026.6
17 13.09 С 3
{6}
20 км 6/4 1050 м
[Cu Sc Ac trans Ci sp]
+20.0 +12.8 63 +22 +22 комфорт 1033.5 1026.9
18 13.09 С 4
{9}
20 км 9/6 1320 м
[Cu Sc Ac trans Ci sp]
+18.6 +12.6 68 +19 +19 тепло 1033.8 1027.2 +22.5 0.0
19 13.09 С 3
{5}
20 км 9/8 1140 м
[Cu Sc Ac trans Ci sp]
+18.0 +12.4 70 +18 +18 тепло 1034.4 1027.8
20 13.09 С 4
{7}
20 км 9/8 1140 м
[Sc Ac trans Ci sp]
+16.7 +12.0 74 +16 +16 тепло 1034.6 1028.0
21 13.09 С 2
{7}
20 км 4/3 1380 м
[Cu Sc Ac trans Ci sp]
+14.8 +11.8 82 +14 +14 по сезону 1035.0 1028.3
22 13.09 С 2
{4}
20 км 4/3 1320 м
[Cu Sc Ac trans Ci sp]
+14.1 +11.8 86 +14 +14 тепло 1034.9 1028.2
23 13.09 С 1
{3}
20 км 9/9 1320 м
[Sc]
+13.8 +11.9 88 +14 +14 тепло 1034.8 1028.1
00 14.09 С 2
{7}
20 км 8/6 1320 м
[Sc Ac trans Ci sp]
+13.5 +11.8 89 +13 +13 по сезону 1034.8 1028.1
01 14.09 С 1
{3}
20 км 3/3 1320 м
[Sc Ac trans Ci sp]
+12.1 +11.4 95 +12 +12 тепло 1034.5 1027.7
02 14.09 штиль 0
{2}
20 км 1/0
[Ac trans]
+11.6 +11.2 97 +11 +11 по сезону 1034.0 1027.3
03 14.09 С 1
{3}
20 км 1/1 1380 м
[Cu hum]
+10.7 +10.5 99 +10 +10 по сезону 1034.3 1027.5
04 14.09 СВ 1
{2}
20 км 3/3 1380 м
[Sc]
+10.6 +10.4 99 +10 +10 тепло 1034.3 1027.5
05 14.09 В 1
{2}
20 км 1/1 2000 м
[Sc Ac trans Ci fib]
+10.3 +9.6 95 +10 +10 по сезону 1033.9 1027.1
06 14.09 СВ 2
{3}
25 км 1/0
[Ci fib]
+10.2 +9.5 95 +9 +9 по сезону 1033.9 1027.1 +9.4
07 14.09 СВ 1
{3}
25 км 1/0
[Ci fib]
+11.4 +10.0 91 +11 +13 по сезону 1034.1 1027.3
08 14.09 СВ 1
{3}
45 км 1/0
[Ci sp]
+13.9 +10.4 79 +14 +18 по сезону 1034.0 1027.3
09 14.09 СВ 2
{4}
50 км 1/0
[Ci sp]
+15.5 +10.4 72 +15 +21 по сезону 1034.4 1027.7
10 14.09 В 3
{4}
50 км 1/0
[Ci sp]
+17.7 +10.6 63 +18 +24 по сезону 1033.7 1027.1
11 14.09 СВ 3
{5}
50 км 3/1 1110 м
[Cu hum Ci sp]
+19.2 +10.0 55 +20 +27 тепло 1033.1 1026.5
12 14.09 В 2
{5}
50 км 1/1 1230 м
[Cu hum Ci sp]
+20.4 +9.9 51 +23 +31 комфорт 1032.5 1025.9
13 14.09 В 2
{6}
50 км 1/1 1440 м
[Cu hum Ci sp]
+21.0 +9.1 46 +23 +31 комфорт 1031.8 1025.3
14 14.09 нст 1
{5}
50 км 1/0
[Ci sp]
+21.5 +9.1 45 +23 +30 комфорт 1031.1 1024.6
15 14.09 С 2
{6}
50 км 3/0
[Ci sp]
+21.8 +8.1 41 +23 +27 комфорт 1030.1 1023.6
16 14.09 В 3
{5}
50 км 6/0
[Ci sp]
+21.7 +8.0 41 +23 +24 комфорт 1029.7 1023.2
17 14.09 СВ 2
{5}
50 км 6/0
[Ci sp]
+20.4 +8.1 45 +22 +23 комфорт 1029.6 1023.0
18 14.09 СВ 1
{6}
50 км 8/0
[Ci]
+18.5 +8.7 53 +20 +20 тепло 1029.2 1022.6 +22.3
19 14.09 В 1
{3}
30 км 6/0
[Ci sp]
+16.8 +9.1 60 +18 +18 тепло 1029.0 1022.4
20 14.09 В 1
{3}
30 км 5/0
[Ci sp]
+16.4 +8.6 60 +17 +17 тепло 1029.0 1022.4
21 14.09 ЮВ 1
{3}
30 км 5/0
[Ci sp]
+14.5 +9.7 73 +15 +15 по сезону 1028.7 1022.0
22 14.09 ЮВ 1
{2}
30 км 5/0
[Ci sp]
+12.8 +9.0 78 +13 +13 тепло 1028.0 1021.3
23 14.09 ЮВ 1
{2}
30 км 5/0
[Ci sp]
+11.4 +8.6 83 +11 +11 по сезону 1027.3 1020.6
00 15.09 ЮЗ 1
{3}
30 км 5/0
[Ci sp]
+10.8 +8.0 83 +11 +11 по сезону 1027.0 1020.3
01 15.09 Ю 1
{2}
30 км 5/0
[Ci fib]
+9.2 +7.6 90 +9 +9 по сезону 1026.6 1019.8
02 15.09 З 1
{2}
30 км 5/0
[Ci fib]
+9.2 +7.9 92 +8 +8 по сезону 1026.3 1019.5
03 15.09 ЮЗ 1
{2}
30 км 5/0
[Ci fib]
+8.6 +7.5 93 +8 +8 прохладно 1025.8 1019.0
04 15.09 ЮЗ 3
{3}
30 км 5/0
[Ci fib]
+9.3 +7.2 87 +7 +7 по сезону 1025.5 1018.7
05 15.09 ЮЗ 3
{3}
30 км 1/0
[Ci fib]
+9.7 +7.3 85 +7 +7 по сезону 1025.3 1018.6
06 15.09 ЮЗ 4
{4}
30 км 1/0
[Ci fib]
+11.1 +8.1 82 +9 +9 по сезону 1025.2 1018.5 +8.5
07 15.09 ЮЗ 3
{4}
40 км 1/0
[Ci fib]
+13.8 +9.3 74 +13 +14 по сезону 1025.0 1018.4
08 15.09 ЮЗ 3
{4}
40 км 3/0
[Ci sp]
+17.2 +9.6 61 +17 +20 тепло 1025.0 1018.4
09 15.09 З 4
{5}
40 км 5/0
[Ci sp]
+19.5 +8.2 48 +20 +24 тепло 1025.4 1018.9
10 15.09 З 4
{6}
40 км 6/0
[Ci sp]
+20.8 +9.3 48 +23 +27 комфорт 1025.6 1019.1
11 15.09 З 5
{7}
40 км 6/0
[Ci sp]
+21.3 +10.5 50 +23 +27 комфорт 1025.3 1018.8
12 15.09 З 3
{7}
50 км 5/0
[Ci sp]
+22.4 +10.1 46 +24 +31 комфорт 1024.7 1018.3
13 15.09 З 3
{6}
50 км 6/0
[Ci sp]
+23.4 +9.2 40 +25 +31 комфорт 1024.0 1017.6
14 15.09 З 3
{6}
50 км 5/0
[Ci sp]
+24.4 +7.8 35 +25 +30 комфорт 1023.5 1017.1
15 15.09 СЗ 4
{7}
50 км 4/0
[Ci sp]
+23.8 +6.8 34 +24 +27 комфорт 1023.2 1016.8
16 15.09 СЗ 3
{6}
50 км 3/0
[Ci sp]
+23.7 +7.1 34 +24 +25 комфорт 1022.7 1016.3
17 15.09 СЗ 3
{5}
50 км 3/0
[Ci sp]
+22.9 +6.4 34 +23 +24 комфорт 1022.7 1016.2
18 15.09 С 3
{7}
50 км 3/0
[Ci sp]
+20.1 +8.4 47 +22 +22 комфорт 1022.7 1016.2 +24.4
19 15.09 С 3
{6}
50 км 4/0
[Ac und Ci]
+18.0 +9.2 56 +18 +18 тепло 1023.4 1016.8
20 15.09 С 1
{4}
50 км 4/0
[Ac trans Ci sp]
+16.6 +11.3 71 +17 +17 тепло 1023.5 1016.9
21 15.09 СВ 1
{6}
50 км 3/0
[Ci fib]
+15.4 +12.1 81 +16 +16 тепло 1023.2 1016.6
22 15.09 ЮВ 1
{2}
30 км 3/0
[Ci]
+13.6 +11.9 89 +14 +14 тепло 1023.1 1016.4
23 15.09 Ю 2
{2}
30 км 5/0
[Ci]
+14.1 +12.7 91 +14 +14 тепло 1022.8 1016.2
00 16.09 Ю 2
{6}
30 км 8/0
[Ci]
+14.1 +12.5 90 +14 +14 тепло 1022.2 1015.5
01 16.09 Ю 2
{3}
30 км 8/0
[Ci sp]
+13.7 +12.1 90 +13 +13 тепло 1022.1 1015.4
02 16.09 ЮЗ 1
{3}
30 км 8/0
[Ci]
+13.6 +12.0 90 +14 +14 тепло 1022.1 1015.4
03 16.09 СВ 1
{3}
30 км 8/0
[Ci]
+13.1 +12.0 93 +13 +13 тепло 1021.7 1015.1
04 16.09 Ю 2
{3}
30 км 9/0
[Ac und Ci sp]
+13.4 +12.3 93 +13 +13 тепло 1020.5 1013.9
05 16.09 ЮЗ 1
{3}
30 км 9/0
[Ac As]
+13.7 +12.0 89 +14 +14 тепло 1020.8 1014.2
06 16.09 ЮЗ 2
{3}
25 км 9/0
[Ac trans]
+14.4 +11.7 84 +14 +14 тепло 1020.6 1014.0 +12.7
07 16.09 Ю 3
{5}
20 км 9/3 1200 м
[Sc Ac trans]
+15.3 +10.9 75 +15 +15 тепло 1020.5 1013.9
08 16.09 З 2
{5}
20 км в посл. час дождь 10/3 1320 м
[Sc Ac trans]
+16.8 +10.8 68 +17 +18 тепло 1020.8 1014.2
09 16.09 З 4
{6}
20 км 10/1 1320 м
[Sc Ac trans]
+17.7 +8.9 56 +17 +19 тепло 1020.9 1014.3
10 16.09 З 3
{6}
20 км 10/3 1320 м
[Sc Ac trans]
+18.6 +10.5 59 +19 +21 тепло 1020.7 1014.2
11 16.09 З 3
{6}
15 км 9/3 1200 м
[Sc Ac trans]
+19.3 +13.0 67 +21 +23 комфорт 1020.7 1014.2
12 16.09 З 3
{6}
15 км {дождь} 10/6 1080 м
[Sc Ac trans]
+20.1 +13.7 67 +23 +24 комфорт 1020.5 1014.1 0.0
13 16.09 СЗ 3
{6}
15 км в посл. час дождь 9/6 660 м
[Sc Ac As]
+20.5 +14.3 68 +23 +25 комфорт 1020.4 1013.9
14 16.09 СЗ 4
{7}
15 км слаб. дождь 10/9 360 м
[Sc]
+19.0 +14.8 77 +20 +20 тепло 1020.5 1014.0
15 16.09 С 4
{7}
8000 м в посл. час дождь 10/9 420 м
[Sc]
+18.6 +15.0 80 +19 +19 тепло 1020.7 1014.2
16 16.09 С 2
{8}
9000 м в посл. час дождь {морось} 10/9 300 м
[Sc]
+17.1 +15.5 90 +17 +17 тепло 1020.9 1014.4
17 16.09 С 3
{5}
10 км 10/9 270 м
[Sc]
+16.7 +14.8 89 +16 +16 тепло 1021.0 1014.5
18 16.09 СВ 3
{8}
14 км {дождь, морось} 10/9 330 м
[Sc]
+16.1 +14.0 87 +16 +16 по сезону 1021.2 1014.6 +20.7 0.0
19 16.09 СВ 1
{4}
14 км 10/9 240 м
[Sc]
+15.7 +13.7 88 +16 +16 тепло 1021.5 1014.9
20 16.09 С 1
{2}
14 км 10/9 540 м
[Sc]
+15.3 +13.6 90 +16 +16 тепло 1021.7 1015.1
21 16.09 СВ 2
{4}
17 км 10/9 480 м
[Sc]
+15.5 +13.4 87 +15 +15 тепло 1021.9 1015.3
22 16.09 С 2
{4}
18 км 10/9 360 м
[Sc]
+15.1 +12.8 86 +15 +15 тепло 1022.1 1015.5
23 16.09 С 2
{5}
18 км 10/9 870 м
[Sc]
+14.6 +12.0 84 +14 +14 тепло 1022.3 1015.6
00 17.09 С 1
{5}
18 км 10/9 750 м
[Sc]
+14.4 +12.2 87 +15 +15 тепло 1022.3 1015.7
01 17.09 штиль 0
{3}
18 км 10/9 800 м
[Sc]
+14.2 +11.9 86 +14 +14 тепло 1022.0 1015.3
02 17.09 З 1
{1}
18 км 10/9 400 м
[Sc]
+14.2 +11.4 83 +15 +15 тепло 1021.8 1015.2
03 17.09 СЗ 1
{3}
18 км 10/9 660 м
[Sc]
+14.2 +11.4 83 +15 +15 тепло 1021.8 1015.2
04 17.09 СЗ 2
{4}
30 км 9/9 1110 м
[Sc]
+13.5 +11.3 87 +13 +13 тепло 1022.1 1015.5
05 17.09 С 1
{3}
30 км 4/3 870 м
[Sc Ci sp]
+11.9 +9.5 85 +12 +12 тепло 1022.1 1015.4
06 17.09 З 1
{4}
30 км 1/1 1050 м
[Sc Ci fib]
+11.4 +10.1 92 +11 +11 по сезону 1022.4 1015.7 +10.4
07 17.09 СЗ 1
{2}
30 км 1/0
[Ci sp]
+13.6 +10.5 82 +14 +15 тепло 1022.6 1015.9
08 17.09 СЗ 2
{3}
30 км 1/0
[Ci sp]
+15.0 +9.4 69 +15 +18 тепло 1023.2 1016.6
09 17.09 СЗ 3
{4}
30 км 4/4 900 м
[Cu hum Ci fib]
+15.5 +8.2 62 +15 +18 по сезону 1023.5 1016.9
10 17.09 СЗ 3
{6}
30 км 5/5 1050 м
[Cu hum Ci sp]
+17.1 +7.7 54 +17 +20 по сезону 1023.5 1016.9
11 17.09 С 3
{7}
30 км 4/4 1170 м
[Sc diur, vesp Ci fib]
+16.8 +7.4 54 +17 +21 по сезону 1023.4 1016.8
12 17.09 СЗ 5
{8}
30 км 6/6 1170 м
[Cu Sc Ci fib]
+17.5 +7.4 51 +17 +19 по сезону 1023.3 1016.7
13 17.09 СЗ 4
{8}
30 км 6/6 1350 м
[Sc diur, vesp Ci fib]
+18.0 +8.2 53 +18 +20 тепло 1023.1 1016.5

 

Местоположение метеостанции Брюссель (Бельгия): широта 50.90 долгота 4.53 высота над уровнем моря 58 м.

В архиве по умолчанию представлена погода в Брюсселе за последнюю неделю. Архивные данные за месяц целиком и за предыдущие месяцы, начиная с января 2011 года, Вы можете получить, выбрав интересующий диапазон дат из раскрывающегося списка и нажав кнопку "Ввод!".


*Определитесь, кто Вы:
робот инопланетянин человек

Внимание! Время в таблицах - всемирное. Для получения местного времени необходимо прибавить поправку, которая равна 1 ч.

Смотрите также архив погоды в соседних городах и на ближайших метеорологических станциях:

Погода в Уккеле (Бельгия) (17 км)
Погода в Бовешене (Бельгия) (24 км)
Погода в Эрнаже (Бельгия) (28 км)
Погода в Антверпене (Бельгия) (34 км)
Погода в Шаффене (Бельгия) (39 км)
Погода в Шарлеруа (Бельгия) (48 км)
Погода в Ретье (Бельгия) (50 км)
Погода в Мелле (Бельгия) (51 км)
Погода в Генте (Бельгия) (59 км)
Погода в Вестдорпе (Нидерланды) (59 км)

Пояснения к столбцам:

Ветер - указаны скорость ветра в м/с - средняя за 10 мин, порывы в срок и между сроками (в фигурных скобках) и направление, откуда дует ветер: С - северный, СВ - северо-восточный, В - восточный, ЮВ - юго-восточный, Ю - южный, ЮЗ - юго-западный, З - западный, СЗ - северо-западный.
Видимость - горизонтальная дальность видимости в метрах или километрах. При видимости от 1 до 10 км при отсутствии осадков обычно наблюдается дымка, при ухудшении видимости до 1 км и менее - туман. В сухую погоду видимость может ухудшаться дымом, пылью или мглою.
Явления - указаны атмосферные явления, наблюдавшиеся в срок или в последний час перед сроком; фигурными скобками обозначены явления, наблюдавшиеся между сроками (за 1-3 часа до срока); квадратными скобками обозначены град или гололедные отложения с указанием их диаметра в мм.
Облачность - указаны через наклонную черту общая и нижняя облачность в баллах и высота нижней границы облаков в метрах; квадратными скобками обозначены формы облаков: Ci - перистые, Cs - перисто-слоистые, Cc - перисто-кучевые, Ac - высококучевые, As - высокослоистые, Sc - слоисто-кучевые, Ns - слоисто-дождевые, Cu - кучевые, Cb - кучево-дождевые. Подробнее классификацию облаков см. в Атласе облаков (PDF).
T - Температура воздуха - температура, измеренная на высоте 2 м над землей.
Td - Температура точки росы - температура, при понижении до которой содержащийся в воздухе водяной пар достигнет насыщения.
f - Относительная влажность воздуха - влажноcть воздуха, измеренная на высоте 2 м над землей.
Te - Эффективная температура - температура, которую ощущает одетый по сезону человек в тени. Характеристика душности погоды. При расчете учитывается влияние влажности воздуха и скорости ветра на теплоощущения человека.
Tes - Эффективная температура на солнце - температура, которую ощущает человек, с поправкой на солнечный нагрев. Характеристика знойности погоды. Зависит от высоты солнца над горизонтом, облачности и скорости ветра. Ночью, в пасмурную погоду, а также при ветре 12 м/с и более поправка равна нулю.
P - Атмосферное давление - приведенное к уровню моря атмосферное давление.
Po - Атмосферное давление - измеренное на уровне метеостанции атмосферное давление.
Tmin - Минимальная температура - минимум температуры воздуха на высоте 2 м над землей.
Tmax - Максимальная температура - максимум температуры воздуха на высоте 2 м над землей.
R - Количество осадков - Количество выпавших осадков за период времени, мм. При наведении курсора мыши на число - период времени, за который выпало указанное количество осадков.
R24 - Количество осадков - Количество выпавших осадков за 24 часа, мм.
S - Снежный покров - Высота снежного покрова, см. При наведении курсора мыши на число - состояние снежного покрова и степень покрытия местности в баллах.